#timestamp,LO_Frequency,Hit,StdDev 
1621220415.4,286047000.0,N
1621220435.2,286047000.1,N
1621220455.0,286047002.8,N
1621220455.9,286047002.8,N
1621220475.8,286047000.2,N
1621220495.6,286047002.6,N
1621220515.4,286046999.8,N
1621220535.3,286047000.2,N
1621220555.1,286047002.7,N
1621220575.9,286047000.2,N
1621220595.7,286046999.8,N
1621220615.5,286047000.2,N
1621220635.4,286047000.1,N
1621220655.2,286046999.8,N
1621220675.0,286047002.5,N
1621220676.0,286047002.5,N
1621220695.8,286047000.1,N
1621220715.6,286047000.2,N
1621220735.5,286047000.0,N
1621220755.3,286047000.0,N
1621220775.1,286047000.9,N
1621220825.9,286046999.9,E
1621220835.8,286046999.9,N
1621220855.7,286047002.4,P
1621220875.5,286047000.2,N
1621220895.3,286047002.8,N
1621220915.2,286047002.5,N
1621220935.0,286046999.7,N
1621220935.9,286046999.7,N
1621220955.8,286047002.6,N
1621220975.6,286046999.8,N
1621220995.4,286046999.8,N
1621221015.3,286046999.9,N
1621221035.1,286046999.7,N
1621221055.8,286046999.8,N
1621221075.7,286046999.8,N
1621221095.5,286047000.1,N
1621221115.4,286047000.3,N
1621221135.2,286047000.2,N
1621221155.0,286046999.7,N
1621221155.9,286046999.7,N
1621221175.8,286047002.7,N
1621221195.6,286047002.6,N
1621221215.5,286047002.6,N
1621221235.3,286047002.4,N
1621221255.1,286047002.1,N
1621221275.9,286047001.6,N
1621221295.7,286047002.1,N
1621221315.5,286047002.0,N
1621221335.4,286047000.1,N
1621221355.2,286047002.3,N
1621221375.1,286047002.7,N
1621221376.0,286047002.7,N
1621221395.8,286047002.6,N
1621221415.6,286047002.5,N
1621221435.5,286047002.6,N
1621221455.3,286047002.6,N
1621221475.2,286047002.4,N
1621221495.9,286046999.7,N
1621221515.7,286047002.6,N
1621221535.6,286047002.4,N
1621221555.4,286047002.3,N
1621221575.2,286047002.5,N
1621221595.1,286047002.5,N
1621221596.0,286047002.5,N
1621221615.8,286047002.5,N
1621221635.7,286047002.6,N
1621221655.5,286047001.8,N
1621221675.3,286047002.4,N
1621221695.2,286047002.3,N
1621221715.0,286047002.3,N
1621221715.9,286047002.3,Y
1621221735.8,286047001.1,P
1621221755.6,286047001.1,N
1621221775.4,286047001.1,N
1621221795.3,286046998.6,N
1621221815.1,286046998.2,N
1621221835.8,286047001.1,N
1621221855.7,286047000.8,N
1621221875.5,286047001.1,N
1621221895.4,286046998.2,N
1621221915.2,286046998.6,N
1621221935.0,286046998.6,N
1621221935.9,286046998.6,N
1621221955.8,286046998.2,N
1621221975.6,286046998.6,N
1621221995.5,286046998.3,N
1621222015.3,286046998.3,N
1621222035.1,286046998.2,N
1621222055.9,286046998.6,N
1621222075.7,286047000.8,N
1621222095.5,286047001.2,N
1621222115.4,286047000.7,N
1621222135.2,286046998.5,N
1621222155.1,286046998.2,N
1621222156.0,286046998.2,N
1621222175.8,286046998.1,N
1621222195.6,286047001.1,N
1621222215.5,286047000.8,N
1621222235.3,286047001.1,N
1621222255.1,286047001.1,N
1621222275.9,286046999.0,N
1621222295.7,286046999.2,N
1621222315.6,286046998.9,N
1621222335.4,286046998.4,N
1621222355.2,286046998.9,N
1621222375.1,286046999.4,N
1621222376.0,286046999.4,N
1621222395.8,286046998.8,N
1621222415.7,286046998.4,N
1621222435.5,286046998.5,N
1621222455.3,286046999.0,N
1621222475.2,286046999.3,N
1621222495.0,286046998.9,N
1621222495.9,286046998.9,N
1621222515.7,286046998.9,N
1621222535.6,286046998.7,N
1621222555.4,286046998.2,N
1621222575.3,286047000.8,N
1621222595.1,286046998.1,N
1621222596.0,286046998.1,N
1621222615.8,286047000.7,N
1621222635.7,286047000.9,N
1621222655.5,286047001.1,N
1621222675.4,286047000.8,N
1621222695.2,286047000.7,N
1621222715.0,286047000.7,N
1621222715.9,286047000.7,N
1621222735.8,286046999.9,N
1621222755.6,286047001.1,N
1621222775.5,286046998.1,N
1621222795.3,286047001.0,N
1621222815.1,286047000.8,N
1621222835.9,286047000.6,N
1621222855.7,286047001.0,N
1621222875.5,286047000.8,N
1621222895.4,286046998.6,N
1621222915.2,286046998.5,N
1621222935.1,286046998.2,N
1621222936.0,286046998.2,N
1621222955.8,286046998.5,N
1621222975.6,286046998.1,N
1621222995.5,286046998.1,N
1621223015.3,286047000.8,N
1621223035.1,286047001.2,N
1621223055.9,286046998.2,N
1621223075.7,286047000.3,N
1621223095.6,286047000.6,N
1621223115.4,286047000.4,N
1621223135.2,286047000.3,N
1621223155.1,286047000.9,N
1621223156.0,286047000.9,N
1621223175.8,286047000.6,N
1621223195.7,286047000.6,N
1621223215.5,286047001.0,N
1621223235.3,286047000.6,N
1621223255.2,286047000.6,N
1621223275.0,286047000.9,N
1621223275.9,286047000.9,N
1621223295.7,286047000.9,N
1621223315.6,286047000.6,N
1621223335.4,286047000.7,N
1621223355.3,286047000.2,N
1621223375.1,286047000.5,N
1621223376.0,286047000.5,N
1621223425.9,286047000.3,E
1621223435.8,286047000.4,N
1621223455.6,286047001.0,P
1621223475.5,286047000.6,N
1621223495.3,286047000.9,Y
1621223515.1,286047001.2,P
1621223535.9,286046998.1,P
1621223555.7,286047000.8,N
1621223575.6,286047000.8,N
1621223595.4,286046998.9,N
1621223615.2,286047001.1,N
1621223635.1,286046998.2,N
1621223636.0,286046998.2,N
1621223655.8,286046998.4,N
1621223675.6,286046998.7,N
1621223695.5,286047000.8,N
1621223715.3,286046998.8,N
1621223735.2,286046998.1,N
1621223755.9,286046998.1,N
1621223775.7,286046998.5,N
1621223795.6,286046998.2,N
1621223815.4,286046998.5,N
1621223835.3,286046998.6,N
1621223855.1,286046998.3,N
1621223856.0,286046998.3,N
1621223875.8,286046998.2,N
1621223895.7,286046998.1,N
1621223915.5,286046998.2,N
1621223935.3,286046998.5,N
1621223955.2,286046998.5,N
1621223975.0,286046998.6,N
1621223975.9,286046998.6,N
1621223995.8,286046999.3,N
